| time (UTC) | temp F | wind direction | speed knots | gust knots | rain 1hr in | rain 24hr in | rain mn in | humidity % | barometer mb |
| 20260502164244 | 53 | 62 | 1.7 | 2.6 | 0.00 | 0.00 | 0.00 | 41 | 1017.2 |
| 20260502163631 | 54 | 153 | 1.7 | 2.6 | 0.00 | 0.00 | 0.00 | 42 | 1017.2 |
| 20260502163053 | 53 | 77 | 2.6 | 5.2 | 0.00 | 0.00 | 0.00 | 43 | 1017.2 |
| 20260502162442 | 51 | 140 | 2.6 | 2.6 | 0.00 | 0.00 | 0.00 | 45 | 1017.6 |
| 20260502161816 | 51 | 91 | 1.7 | 1.7 | 0.00 | 0.00 | 0.00 | 49 | 1017.6 |
| 20260502161221 | 52 | 211 | 0.9 | 2.6 | 0.00 | 0.00 | 0.00 | 48 | 1017.9 |
| 20260502160623 | 51 | 216 | 1.7 | 2.6 | 0.00 | 0.00 | 0.00 | 45 | 1017.6 |
| 20260502151833 | 50 | 15 | 0.0 | 0.9 | 0.00 | 0.00 | 0.00 | 56 | 1017.9 |
| 20260502151241 | 51 | 281 | 3.5 | 5.2 | 0.00 | 0.00 | 0.00 | 50 | 1017.9 |
| 20260502150650 | 50 | 64 | 0.9 | 2.6 | 0.00 | 0.00 | 0.00 | 53 | 1017.9 |
| 20260502130631 | 44 | 56 | 0.9 | 3.5 | 0.00 | 0.00 | 0.00 | 77 | 1017.9 |
| 20260502123635 | 40 | 78 | 0.0 | 0.0 | 0.00 | 0.00 | 0.00 | 99 | 1017.6 |
| 20260502122440 | 38 | 79 | 0.0 | 0.0 | 0.00 | 0.00 | 0.00 | 99 | 1017.6 |
| 20260502121222 | 37 | 94 | 0.0 | 0.0 | 0.00 | 0.00 | 0.00 | 99 | 1017.6 |
| 20260502120644 | 36 | 142 | 0.0 | 0.0 | 0.00 | 0.00 | 0.00 | 99 | 1017.6 |
| 20260502115451 | 35 | 88 | 0.0 | 0.0 | 0.00 | 0.00 | 0.00 | 99 | 1017.2 |
| 20260502114813 | 34 | 88 | 0.0 | 0.0 | 0.00 | 0.00 | 0.00 | 99 | 1017.6 |
| 20260502114232 | 34 | 88 | 0.0 | 0.0 | 0.00 | 0.00 | 0.00 | 99 | 1017.6 |
| 20260502113611 | 33 | 88 | 0.0 | 0.0 | 0.00 | 0.00 | 0.00 | 99 | 1017.2 |
| 20260502113039 | 32 | 88 | 0.0 | 0.0 | 0.00 | 0.00 | 0.00 | 99 | 1017.2 |
| 20260502112437 | 32 | 88 | 0.0 | 0.0 | 0.00 | 0.00 | 0.00 | 99 | 1017.2 |
| 20260502111828 | 32 | 88 | 0.0 | 0.0 | 0.00 | 0.00 | 0.00 | 99 | 1017.2 |
| 20260502111226 | 31 | 88 | 0.0 | 0.0 | 0.00 | 0.00 | 0.00 | 99 | 1017.2 |
| 20260502110017 | 31 | 88 | 0.0 | 0.0 | 0.00 | 0.00 | 0.00 | 99 | 1017.2 |
| 20260502105418 | 31 | 88 | 0.0 | 0.0 | 0.00 | 0.00 | 0.00 | 99 | 1017.2 |
| 20260502104829 | 31 | 88 | 0.0 | 0.0 | 0.00 | 0.00 | 0.00 | 99 | 1017.6 |
| 20260502104217 | 31 | 88 | 0.0 | 0.0 | 0.00 | 0.00 | 0.00 | 99 | 1017.2 |
| 20260502103635 | 31 | 88 | 0.0 | 0.0 | 0.00 | 0.00 | 0.00 | 99 | 1017.6 |
| 20260502103043 | 31 | 88 | 0.0 | 0.0 | 0.00 | 0.00 | 0.00 | 99 | 1017.6 |
| 20260502102419 | 31 | 88 | 0.0 | 0.0 | 0.00 | 0.00 | 0.00 | 99 | 1017.6 |
| 20260502101846 | 32 | 89 | 0.0 | 0.0 | 0.00 | 0.00 | 0.00 | 99 | 1017.6 |
| 20260502100630 | 32 | 89 | 0.0 | 0.0 | 0.00 | 0.00 | 0.00 | 99 | 1017.6 |
| 20260502091252 | 32 | 86 | 0.0 | 0.0 | 0.00 | 0.00 | 0.00 | 99 | 1017.6 |
| 20260502090624 | 32 | 87 | 0.0 | 0.0 | 0.00 | 0.00 | 0.00 | 99 | 1017.9 |
| 20260502071224 | 34 | 88 | 0.0 | 0.0 | 0.00 | 0.00 | 0.00 | 99 | 1016.9 |
| 20260502070652 | 34 | 87 | 0.0 | 0.0 | 0.00 | 0.00 | 0.00 | 99 | 1017.2 |
| 20260502070035 | 34 | 87 | 0.0 | 0.0 | 0.00 | 0.00 | 0.00 | 99 | 1017.2 |
| 20260502063651 | 35 | 88 | 0.0 | 0.0 | 0.00 | 0.00 | 0.00 | 99 | 1017.2 |
| 20260502063042 | 36 | 88 | 0.0 | 0.0 | 0.00 | 0.00 | 0.00 | 99 | 1017.6 |
| 20260502061814 | 37 | 90 | 0.0 | 0.0 | 0.00 | 0.00 | 0.00 | 99 | 1017.6 |
| 20260502061249 | 37 | 84 | 0.0 | 0.0 | 0.00 | 0.00 | 0.00 | 99 | 1017.9 |
| 20260502060622 | 38 | 84 | 0.0 | 0.0 | 0.00 | 0.00 | 0.00 | 99 | 1017.6 |
| 20260502060047 | 38 | 83 | 0.0 | 0.0 | 0.00 | 0.00 | 0.00 | 99 | 1017.9 |
| 20260502055448 | 38 | 83 | 0.0 | 0.0 | 0.00 | 0.00 | 0.00 | 99 | 1017.6 |
| 20260502054820 | 38 | 85 | 0.0 | 0.0 | 0.00 | 0.00 | 0.00 | 99 | 1017.9 |
| 20260502054250 | 38 | 85 | 0.0 | 0.0 | 0.00 | 0.00 | 0.00 | 99 | 1017.6 |
| 20260502053021 | 38 | 83 | 0.0 | 0.0 | 0.00 | 0.00 | 0.00 | 99 | 1017.9 |
| 20260502052415 | 37 | 84 | 0.0 | 0.0 | 0.00 | 0.00 | 0.00 | 99 | 1018.2 |
| 20260502051826 | 37 | 80 | 0.0 | 0.0 | 0.00 | 0.00 | 0.00 | 99 | 1018.2 |
| 20260502051220 | 37 | 138 | 0.0 | 0.0 | 0.00 | 0.00 | 0.00 | 99 | 1017.9 |
| 20260502050628 | 36 | 76 | 0.0 | 0.0 | 0.00 | 0.00 | 0.00 | 99 | 1017.9 |
| 20260502050039 | 35 | 88 | 0.0 | 0.0 | 0.00 | 0.00 | 0.00 | 99 | 1017.9 |
| 20260502045433 | 35 | 88 | 0.0 | 0.0 | 0.00 | 0.00 | 0.00 | 99 | 1017.9 |
| 20260502044838 | 35 | 88 | 0.0 | 0.0 | 0.00 | 0.00 | 0.00 | 99 | 1017.9 |
| 20260502043629 | 35 | 87 | 0.0 | 0.0 | 0.00 | 0.00 | 0.00 | 99 | 1017.9 |
| 20260502043043 | 35 | 87 | 0.0 | 0.0 | 0.00 | 0.00 | 0.00 | 99 | 1017.9 |
| 20260502042435 | 36 | 86 | 0.0 | 0.0 | 0.00 | 0.00 | 0.00 | 99 | 1017.9 |
| 20260502041810 | 36 | 86 | 0.0 | 0.0 | 0.00 | 0.00 | 0.00 | 99 | 1017.6 |
| 20260502041217 | 36 | 86 | 0.0 | 0.0 | 0.00 | 0.00 | 0.00 | 99 | 1017.6 |
| 20260502040649 | 36 | 88 | 0.0 | 0.0 | 0.00 | 0.00 | 0.00 | 99 | 1017.6 |
| 20260502040019 | 37 | 88 | 0.0 | 0.0 | 0.00 | 0.00 | 0.01 | 99 | 1017.9 |
| 20260502035442 | 37 | 89 | 0.0 | 0.0 | 0.00 | 0.00 | 0.01 | 99 | 1017.6 |
| 20260502034810 | 36 | 86 | 0.0 | 0.0 | 0.00 | 0.00 | 0.01 | 99 | 1017.6 |
| 20260502034246 | 35 | 86 | 0.0 | 0.0 | 0.00 | 0.00 | 0.01 | 98 | 1017.6 |
| 20260502033649 | 36 | 86 | 0.0 | 0.0 | 0.00 | 0.00 | 0.01 | 98 | 1017.6 |
| 20260502033012 | 36 | 85 | 0.0 | 0.0 | 0.00 | 0.00 | 0.01 | 97 | 1017.6 |
| 20260502032426 | 37 | 86 | 0.0 | 0.0 | 0.00 | 0.00 | 0.01 | 97 | 1017.9 |
| 20260502031841 | 37 | 85 | 0.0 | 0.0 | 0.00 | 0.00 | 0.01 | 97 | 1017.9 |
| 20260502031213 | 37 | 85 | 0.0 | 0.0 | 0.00 | 0.00 | 0.01 | 96 | 1017.9 |
| 20260502030616 | 37 | 86 | 0.0 | 0.0 | 0.00 | 0.00 | 0.01 | 96 | 1017.9 |
| 20260502030046 | 37 | 85 | 0.0 | 0.0 | 0.00 | 0.00 | 0.01 | 96 | 1017.9 |
| 20260502025414 | 37 | 87 | 0.0 | 0.0 | 0.00 | 0.00 | 0.01 | 95 | 1018.2 |
| 20260502024827 | 37 | 87 | 0.0 | 0.0 | 0.00 | 0.00 | 0.01 | 94 | 1017.9 |
| 20260502024219 | 38 | 87 | 0.0 | 0.0 | 0.00 | 0.00 | 0.01 | 93 | 1017.9 |
| 20260502023624 | 38 | 91 | 0.0 | 0.0 | 0.00 | 0.00 | 0.01 | 94 | 1017.9 |
| 20260502023047 | 38 | 85 | 0.0 | 0.0 | 0.00 | 0.00 | 0.01 | 92 | 1017.6 |
| 20260502022427 | 39 | 85 | 0.0 | 0.0 | 0.00 | 0.00 | 0.01 | 91 | 1017.6 |
| 20260502021812 | 40 | 89 | 0.0 | 0.0 | 0.00 | 0.00 | 0.01 | 91 | 1017.2 |
| 20260502021234 | 40 | 85 | 0.0 | 0.0 | 0.00 | 0.00 | 0.01 | 91 | 1017.2 |
| 20260502020614 | 40 | 80 | 0.0 | 0.0 | 0.00 | 0.00 | 0.01 | 90 | 1017.2 |
| 20260502020036 | 40 | 83 | 0.0 | 0.0 | 0.00 | 0.00 | 0.01 | 89 | 1017.2 |
| 20260502015431 | 41 | 79 | 0.0 | 0.0 | 0.00 | 0.00 | 0.01 | 86 | 1017.2 |
| 20260502014842 | 41 | 82 | 0.0 | 0.0 | 0.00 | 0.00 | 0.01 | 86 | 1017.2 |
| 20260502014227 | 41 | 83 | 0.0 | 0.0 | 0.00 | 0.00 | 0.01 | 86 | 1016.9 |
| 20260502013620 | 41 | 87 | 0.0 | 0.0 | 0.00 | 0.00 | 0.01 | 84 | 1016.9 |
| 20260502013036 | 41 | 154 | 0.0 | 0.9 | 0.00 | 0.00 | 0.01 | 85 | 1017.2 |
| 20260502012450 | 41 | 83 | 0.0 | 0.0 | 0.00 | 0.00 | 0.01 | 87 | 1016.5 |
| 20260502011841 | 41 | 89 | 0.0 | 0.0 | 0.00 | 0.00 | 0.01 | 86 | 1016.9 |
| 20260502011224 | 42 | 91 | 0.0 | 0.0 | 0.00 | 0.00 | 0.01 | 84 | 1016.5 |
| 20260502010625 | 42 | 95 | 0.0 | 0.0 | 0.00 | 0.00 | 0.01 | 84 | 1016.5 |
| 20260502010053 | 43 | 90 | 0.0 | 0.0 | 0.00 | 0.00 | 0.01 | 82 | 1016.2 |
| 20260502005446 | 44 | 87 | 0.0 | 0.0 | 0.00 | 0.00 | 0.01 | 80 | 1015.9 |
| 20260502004843 | 44 | 78 | 0.0 | 0.0 | 0.00 | 0.00 | 0.01 | 78 | 1015.9 |
| 20260502004227 | 45 | 79 | 0.0 | 0.0 | 0.00 | 0.00 | 0.01 | 75 | 1015.9 |
| 20260502003649 | 46 | 90 | 0.0 | 0.0 | 0.00 | 0.00 | 0.01 | 72 | 1015.9 |
| 20260502002449 | 47 | 96 | 0.9 | 0.9 | 0.00 | 0.00 | 0.01 | 69 | 1016.2 |
| 20260502001832 | 47 | 74 | 0.0 | 0.0 | 0.00 | 0.00 | 0.01 | 68 | 1015.9 |
| 20260502001246 | 47 | 80 | 0.9 | 0.9 | 0.00 | 0.00 | 0.01 | 68 | 1015.5 |
| 20260502000031 | 48 | 164 | 0.9 | 1.7 | 0.00 | 0.00 | 0.01 | 69 | 1015.2 |
| 20260501235453 | 48 | 62 | 1.7 | 3.5 | 0.00 | 0.00 | 0.01 | 66 | 1015.2 |
| 20260501234840 | 49 | 97 | 1.7 | 2.6 | 0.00 | 0.00 | 0.01 | 64 | 1015.2 |
| 20260501234253 | 49 | 92 | 2.6 | 2.6 | 0.00 | 0.00 | 0.01 | 63 | 1015.2 |
| 20260501233644 | 50 | 65 | 0.0 | 0.0 | 0.00 | 0.00 | 0.01 | 66 | 1015.2 |
| 20260501233024 | 50 | 79 | 0.9 | 0.9 | 0.00 | 0.00 | 0.01 | 66 | 1014.9 |
| 20260501232442 | 51 | 34 | 1.7 | 2.6 | 0.00 | 0.00 | 0.01 | 65 | 1014.9 |
| 20260501231817 | 52 | 37 | 3.5 | 3.5 | 0.00 | 0.00 | 0.01 | 62 | 1014.5 |
| 20260501231255 | 52 | 351 | 0.9 | 1.7 | 0.00 | 0.00 | 0.01 | 63 | 1014.9 |
| 20260501230650 | 52 | 125 | 0.9 | 1.7 | 0.00 | 0.00 | 0.01 | 64 | 1014.5 |
| 20260501230036 | 52 | 326 | 2.6 | 5.2 | 0.00 | 0.00 | 0.01 | 63 | 1014.5 |
| 20260501225415 | 52 | 110 | 0.9 | 1.7 | 0.00 | 0.00 | 0.01 | 63 | 1014.5 |
| 20260501224827 | 52 | 137 | 2.6 | 3.5 | 0.00 | 0.00 | 0.01 | 62 | 1014.5 |
| 20260501224233 | 52 | 319 | 3.5 | 6.1 | 0.00 | 0.00 | 0.01 | 63 | 1014.2 |
| 20260501223617 | 52 | 152 | 4.3 | 7.8 | 0.00 | 0.00 | 0.01 | 62 | 1014.2 |
| 20260501223053 | 52 | 165 | 1.7 | 1.7 | 0.00 | 0.00 | 0.01 | 62 | 1014.2 |
| 20260501222451 | 52 | 298 | 1.7 | 6.1 | 0.00 | 0.00 | 0.01 | 64 | 1014.2 |
| 20260501221839 | 52 | 222 | 3.5 | 5.2 | 0.00 | 0.00 | 0.01 | 67 | 1013.8 |
| 20260501221246 | 53 | 244 | 4.3 | 5.2 | 0.00 | 0.00 | 0.01 | 67 | 1013.8 |
| 20260501220645 | 53 | 74 | 1.7 | 3.5 | 0.00 | 0.00 | 0.01 | 72 | 1013.8 |
| 20260501220021 | 54 | 46 | 1.7 | 1.7 | 0.00 | 0.00 | 0.01 | 72 | 1013.8 |
| 20260501215415 | 53 | 291 | 1.7 | 1.7 | 0.00 | 0.00 | 0.01 | 72 | 1013.8 |
| 20260501214238 | 53 | 295 | 1.7 | 2.6 | 0.00 | 0.00 | 0.01 | 71 | 1013.8 |
| 20260501213041 | 53 | 24 | 2.6 | 2.6 | 0.00 | 0.00 | 0.01 | 71 | 1013.8 |
| 20260501211829 | 54 | 69 | 0.9 | 1.7 | 0.00 | 0.00 | 0.01 | 69 | 1013.5 |
| 20260501211210 | 53 | 16 | 1.7 | 2.6 | 0.00 | 0.00 | 0.01 | 70 | 1013.5 |
| 20260501210617 | 53 | 295 | 4.3 | 6.1 | 0.00 | 0.00 | 0.01 | 69 | 1013.5 |
| 20260501210030 | 55 | 89 | 0.9 | 1.7 | 0.00 | 0.00 | 0.01 | 71 | 1013.5 |
| 20260501205421 | 54 | 314 | 1.7 | 1.7 | 0.00 | 0.00 | 0.01 | 72 | 1013.5 |
| 20260501204849 | 52 | 226 | 2.6 | 3.5 | 0.00 | 0.00 | 0.01 | 77 | 1013.5 |
| 20260501203622 | 51 | 56 | 0.9 | 1.7 | 0.00 | 0.00 | 0.01 | 82 | 1013.5 |
| 20260501202444 | 50 | 240 | 1.7 | 1.7 | 0.00 | 0.00 | 0.01 | 82 | 1013.8 |
| 20260501201809 | 50 | 159 | 0.9 | 0.9 | 0.00 | 0.00 | 0.01 | 85 | 1013.8 |
| 20260501201239 | 50 | 208 | 1.7 | 2.6 | 0.00 | 0.00 | 0.01 | 85 | 1013.8 |
| 20260501200048 | 50 | 126 | 0.0 | 0.9 | 0.00 | 0.00 | 0.01 | 85 | 1013.8 |
| 20260501194853 | 50 | 193 | 1.7 | 1.7 | 0.00 | 0.00 | 0.01 | 83 | 1013.8 |
| 20260501194230 | 51 | 178 | 0.0 | 0.9 | 0.00 | 0.00 | 0.01 | 82 | 1013.8 |
| 20260501193623 | 51 | 199 | 2.6 | 3.5 | 0.00 | 0.00 | 0.01 | 80 | 1013.8 |
| 20260501193039 | 52 | 56 | 1.7 | 1.7 | 0.00 | 0.00 | 0.01 | 80 | 1013.8 |
| 20260501192423 | 52 | 332 | 2.6 | 5.2 | 0.00 | 0.00 | 0.01 | 78 | 1013.8 |
| 20260501191236 | 53 | 102 | 0.0 | 0.9 | 0.00 | 0.00 | 0.01 | 78 | 1013.8 |
| 20260501190646 | 54 | 319 | 2.6 | 3.5 | 0.00 | 0.00 | 0.01 | 73 | 1013.5 |
| 20260501190012 | 55 | 7 | 1.7 | 2.6 | 0.00 | 0.00 | 0.01 | 71 | 1013.5 |
| 20260501185428 | 55 | 89 | 0.9 | 1.7 | 0.00 | 0.00 | 0.01 | 70 | 1013.5 |
| 20260501184841 | 54 | 167 | 1.7 | 1.7 | 0.00 | 0.00 | 0.01 | 73 | 1013.5 |
| 20260501184223 | 54 | 66 | 0.0 | 0.0 | 0.00 | 0.00 | 0.01 | 81 | 1013.5 |
| 20260501183648 | 55 | 85 | 1.7 | 1.7 | 0.00 | 0.00 | 0.01 | 76 | 1013.5 |
| 20260501182421 | 54 | 314 | 0.9 | 1.7 | 0.00 | 0.00 | 0.01 | 72 | 1013.2 |
| 20260501181823 | 54 | 99 | 1.7 | 1.7 | 0.00 | 0.00 | 0.01 | 71 | 1013.2 |
| 20260501181238 | 54 | 172 | 3.5 | 6.1 | 0.00 | 0.00 | 0.00 | 66 | 1013.2 |
| 20260501180653 | 55 | 81 | 0.9 | 0.9 | 0.00 | 0.00 | 0.00 | 68 | 1012.8 |
| 20260501180037 | 56 | 259 | 4.3 | 6.1 | 0.00 | 0.00 | 0.00 | 62 | 1012.8 |